Regional Weather Roundup
Issued by NWS State College, PA

Home | Current Version | Previous Version | Graphics & Text | Print | Product List | Glossary Off
Versions: 1 2 3 4 5 6 7 8 9 10 11 12 13 14 15 16 17 18 19 20 21 22 23 24 25 26 27 28 29 30 31 32 33 34 35 36 37 38 39 40 41 42 43 44 45 46 47 48 49 50

000
ASUS41 KCTP 180710
RWRCTP

REGIONAL WEATHER ROUNDUP
NATIONAL WEATHER SERVICE STATE COLLEGE PA
300 AM EDT THU SEP 18 2014

Note: "fair" indicates few or no clouds below 12,000 feet with no
significant weather and/or obstructions to visibility.

* = STATION THAT DOES NOT REPORT PRECIPITATION /E.G. RAIN...SNOW...ETC/
    THUNDER OR FOG.

PAZ002>004-007>009-013>016-020>023-029>032-180800-
WESTERN PENNSYLVANIA

CITY           SKY/WX    TMP DP  RH WIND       PRES   REMARKS
ERIE           CLEAR     51  46  83 S6        30.00S
MEADVILLE      PTCLDY    49  46  90 CALM      30.01F
FRANKLIN*      CLEAR     45  43  93 CALM      30.02F
NEW CASTLE     FAIR      45  45 100 CALM      30.03S FOG
BEAVER COUNTY  NOT AVBL
BUTLER*        MOCLDY    48  46  93 CALM      30.02F
PITTSBURGH INT NOT AVBL
PITTSBURGH     MOCLDY    55  48  77 N5        29.99S
INDIANA*       CLOUDY    48  48 100 CALM      30.03S
LATROBE        CLEAR     48  48 100 CALM      30.01R
WASHINGTON CO* MOCLDY    45  43  93 CALM      30.00F VSB 1/2
$$

PAZ004>006-010>012-017>019-024>028-033>037-041-042-045-046-049>053-180800-
CENTRAL PENNSYLVANIA

CITY           SKY/WX    TMP DP  RH WIND       PRES   REMARKS
BRADFORD       MOCLDY    42  39  89 CALM      30.01F
DUBOIS         CLEAR     48  45  89 E5        29.99F
CLEARFIELD     MOCLDY    45  44  97 CALM      30.00F
JOHNSTOWN      MOCLDY    52  45  77 CALM      30.00S
ALTOONA        MOCLDY    52  50  93 CALM      29.99F
STATE COLLEGE  MOCLDY    51  49  93 CALM      29.99S
WILLIAMSPORT   CLEAR     48  45  89 W3        29.98S
SELINSGROVE    MOCLDY    48  46  93 CALM      29.99S FOG
FT INDIANTOWN  PTCLDY    47  47 100 CALM      29.98S
CAPITAL CITY   MOCLDY    51  48  89 SW5       29.98S
HARRISBURG     MOCLDY    53  50  89 CALM      29.97S
YORK           CLOUDY    47  45  93 CALM      29.97S
$$

PAZ038>040-043-044-047-048-054-055-060>062-067>071-180800-
EASTERN PENNSYLVANIA

CITY           SKY/WX    TMP DP  RH WIND       PRES   REMARKS
SCRANTON       CLEAR     47  42  83 SE6       29.98S
MOUNT POCONO   CLEAR     41  32  70 CALM      29.98F
ALLENTOWN      CLEAR     48  45  89 NW3       29.97F
QUAKERTOWN*    SUNNY     45  45 100 CALM      29.98F
READING        CLEAR     50  47  89 NW3       29.96F
LANCASTER      CLEAR     49  47  93 CALM      29.97S
COATESVILLE    SUNNY     52  50  93 CALM      29.98F
POTTSTOWN      CLEAR     48  47  96 CALM      29.99S
BLUE BELL      CLEAR     46  46 100 CALM      29.96F
DOYLESTOWN     CLEAR     50  49  96 CALM      29.96F
WILLOW GROVE   NOT AVBL
NORTH PHILA    CLEAR     55  50  83 N3        29.98F
PHILADELPHIA   CLEAR     60  53  77 SW5       29.97F
$$



USA.gov is the U.S. government's official web portal to all federal, state and local government web resources and services.